Regional Weather Roundup
Issued by NWS Columbia, SC

Home | Current Version | Previous Version | Text Only | Print | Product List | Glossary On
Versions: 1 2 3 4 5 6 7 8 9 10 11 12 13 14 15 16 17 18 19 20 21 22 23 24 25 26 27 28 29 30 31 32 33 34 35 36 37 38 39 40 41 42 43 44 45 46 47 48 49 50
000
ASUS42 KCAE 031610
RWRCAE
REGIONAL WEATHER ROUNDUP
NATIONAL WEATHER SERVICE COLUMBIA SC
1100 AM EST TUE MAR 03 2015

NOTE: "FAIR" INDICATES FEW OR NO CLOUDS BELOW 12,000 FEET WITH NO
SIGNIFICANT WEATHER AND/OR OBSTRUCTIONS TO VISIBILITY.

NOT ALL STATIONS ARE QUALITY CONTROLLED BY THE NATIONAL
WEATHER SERVICE. USE DATA WITH CAUTION...ESPECIALLY
DEWPOINT OBSERVATIONS.

SCZ001>056-GAZ040-063>065-077-031700-
...UPSTATE SOUTH CAROLINA...

CITY           SKY/WX    TMP DP  RH WIND       PRES   REMARKS
ANDERSON       LGT RAIN  43  40  89 NE7       30.30S FOG
LIBERTY        DRIZZLE   46  39  77 MISG      30.30R
SPARTANBURG    CLOUDY    45  41  87 NE6       30.31F
CLEMSON        LGT RAIN  47  37  68 E7        30.31S
GREENVILLE     CLOUDY    43  37  79 NE7       30.30F
GREENWOOD      LGT RAIN  45  42  89 N8        30.31R FOG
GREER          CLOUDY    43  38  82 NE6       30.29F
ROCK HILL      CLOUDY    40  38  93 VRB5      30.34R FOG
CHESTER        HVY RAIN  43  43 100 NE9       30.34R
LAURENS        RAIN      41  41 100 NE9       30.30F


...CENTRAL SOUTH CAROLINA...

CITY           SKY/WX    TMP DP  RH WIND       PRES   REMARKS
COLUMBIA APT   CLOUDY    49  49 100 E12       30.29F FOG
COLUMBIA OWENS CLOUDY    48  45  89 VRB5      30.31F FOG
DARLINGTON     CLOUDY    39  34  81 NE7       30.36R WCI  34
FLORENCE       CLOUDY    45  29  53 NE8       30.32F
MCENTIRE ANGB  DRIZZLE   46  46 100 NE7       30.30S FOG
ORANGEBURG     LGT RAIN  49  47  93 E9        30.29S FOG
SUMTER SHAW    CLOUDY    44  40  85 NE8       30.30F FOG
NEWBERRY       LGT RAIN  43  43 100 N9        30.32S
AIKEN          DRIZZLE   54  54 100 E6        30.30F
BARNWELL       DRIZZLE   55  55 100 E7        30.27F
MANNING        DRIZZLE  N/A N/A N/A NE5       30.31S
CAMDEN         CLOUDY    41  37  87 NE8       30.34R FOG
LANCASTER      RAIN      39  39 100 E6        30.33F VSB 1   WCI  35
WINNSBORO      CLOUDY    43  43 100 NE10      30.30S FOG


...EASTERN AND COASTAL SOUTH CAROLINA...

CITY           SKY/WX    TMP DP  RH WIND       PRES   REMARKS
MYRTLE BEACH   CLOUDY    48  37  66 NE13      30.33F
N MYRTLE BCH   CLOUDY    48  36  63 NE8       30.31F
CONWAY         CLOUDY    45  34  65 NE5       30.33F
MARION         CLOUDY    43  30  61 CALM      30.34S
HARTSVILLE     CLOUDY    39  34  81 NE7       30.34S WCI  34
FLORENCE       CLOUDY    45  29  53 NE8       30.32F
DARLINGTON     CLOUDY    39  34  81 NE7       30.36R WCI  34
CHARLESTON APT CLOUDY    57  48  72 CALM      30.29F
MOUNT PLEASANT CLOUDY    57  50  77 NE5       30.28F
WALTERBORO     CLOUDY    57  54  88 E5        30.28F
BEAUFORT       CLOUDY    59  56  89 E6        30.26F


...EASTERN GEORGIA...

CITY           SKY/WX    TMP DP  RH WIND       PRES   REMARKS
AUGUSTA BUSH F CLOUDY    56  55  97 E7        30.25F FOG
AUGUSTA DANIEL FOG       57  55  93 E6        30.26F VSB 1
THOMSON        CLOUDY    59  59 100 CALM      30.30R VSB 1
WASHINGTON     DRIZZLE   50 N/A N/A N5        30.27S
CLAXTON        FAIR      68  63  83 SE3       30.24F
SYLVANIA       CLOUDY    59  59 100 E7        30.25F FOG
STATESBORO     CLOUDY    61  61 100 SE5       30.24F FOG
SAVANNAH       CLOUDY    61  56  83 E7        30.26F HAZE


...SOUTHERN NORTH CAROLINA...

CITY           SKY/WX    TMP DP  RH WIND       PRES   REMARKS
CHARLOTTE      CLOUDY    40  36  86 E6        30.35R FOG
MONROE         CLOUDY    39  34  82 E6        30.33F WCI  35
WADESBORO      CLOUDY    41  29  61 NE5       30.36R
ROCKINGHAM       N/A     39  29  65 E6        30.35S
RUTHERFORDTON  CLOUDY    44  30  56 CALM      30.32F
ASHEVILLE      CLOUDY    43  35  73 S9        30.28S

$$


USA.gov is the U.S. government's official web portal to all federal, state and local government web resources and services.